sat.trackr.live / text

‹ back to catalog

STARLINK-36619

NORAD 67645 · 2026-020AE

PAYLOAD ACTIVE UNKNOWN

§ Identity

Operator
Country
US
Launch date
2026-01-30
Launch site
AFETR
Launch vehicle
Mass (kg)
RCS (m²)

Purposes: comms

External: N2YO · Heavens-Above · Gunter

§ Orbital elements

Epoch: 2026-05-25T04:02:47.019264Z

Period
94.27 min
Inclination
43.0042°
Eccentricity
0.0001313
Mean motion
15.27596563 rev/d
Perigee alt
482.1 km
Apogee alt
483.9 km
Semi-major
6,861.1 km
B*
9.5920e-4
RAAN
67.5507°
Arg perigee
256.6555°
Mean anomaly
103.4150°
Rev number
1,781

§ Raw data

STARLINK-366191 67645U 26020AE  26145.16859976  .00026240  00000+0  95920-3 0  99982 67645  43.0042  67.5507 0001313 256.6555 103.4150 15.27596563 17815

JSON: /api/v1/satellites/67645 · /tle

For live sub-satellite position, see the globe view (requires WebGL).

§ Visibility from observer

Set your observer location to see the next 7 days of passes ≥ 10°. The values pass through the URL so the page stays shareable.

No JS? Fill the form by hand. The geolocation button needs JavaScript.